Location: Arcones
(41.1182°N, 3.7238°W)
Time: 22:56:18
(UTC+00:00)

AQUARIUS - Pass Details

Date: 11 December 2025
Orbit: 634 x 635 km, 98.0° (Epoch: 14 January)

Event Time Altitude Azimuth Distance (km) Brightness Sun altitude
Rises 18:03:00 0° 166° (SSE) 2,918 7.6 -14.0°
Reaches altitude 10° 18:05:11 10° 166° (SSE) 2,015 6.7 -14.4°
Maximum altitude 18:09:35 89° 265° (W) 642 4.1 -15.1°
Drops below altitude 10° 18:14:01 10° 347° (NNW) 2,030 6.7 -15.9°
Sets 18:16:14 0° 348° (NNW) 2,943 7.5 -16.3°
